Time,TemperatureF,DewpointF,PressureIn,WindDirection,WindDirectionDegrees,WindSpeedMPH,WindSpeedGustMPH,Humidity,HourlyPrecipIn,Conditions,Clouds,dailyrainin,SoftwareType,DateUTC
2013-06-01 01:48:00,67.3,51.4,30.03,North,-999,0.0,0.0,57,0.00,,,-99.99,FreeWX 2.04,2013-06-01 05:48:00,
2013-06-01 01:58:00,67.3,51.4,30.03,North,-999,0.0,0.0,57,0.00,,,-99.99,FreeWX 2.04,2013-06-01 05:58:00,
2013-06-01 02:08:00,67.5,52.2,30.03,North,-999,0.0,0.0,58,0.00,,,-99.99,FreeWX 2.04,2013-06-01 06:08:00,
2013-06-01 02:18:00,67.5,52.2,30.00,North,-999,0.0,0.0,58,0.00,,,-99.99,FreeWX 2.04,2013-06-01 06:18:00,
2013-06-01 02:28:00,67.6,52.3,30.00,North,-999,0.0,0.0,58,0.00,,,-99.99,FreeWX 2.04,2013-06-01 06:28:00,
2013-06-01 02:38:00,67.8,52.9,30.00,North,-999,0.0,0.0,59,0.00,,,-99.99,FreeWX 2.04,2013-06-01 06:38:00,
2013-06-01 02:49:00,67.8,53.8,30.00,North,-999,0.0,0.0,61,0.00,,,-99.99,FreeWX 2.04,2013-06-01 06:49:00,
2013-06-01 02:59:00,67.8,54.3,30.00,North,-999,0.0,0.0,62,0.00,,,-99.99,FreeWX 2.04,2013-06-01 06:59:00,
2013-06-01 03:09:00,67.6,54.1,30.00,North,-999,0.0,4.0,62,0.00,,,-99.99,FreeWX 2.04,2013-06-01 07:09:00,
2013-06-01 03:19:00,67.5,54.0,30.00,North,-999,0.0,0.0,62,0.00,,,-99.99,FreeWX 2.04,2013-06-01 07:19:00,
2013-06-01 03:29:00,67.5,54.5,30.00,North,-999,0.0,0.0,63,0.00,,,-99.99,FreeWX 2.04,2013-06-01 07:29:00,
2013-06-01 03:39:00,67.5,54.5,30.00,North,-999,0.0,0.0,63,0.00,,,-99.99,FreeWX 2.04,2013-06-01 07:39:00,
2013-06-01 03:49:00,67.6,54.5,30.00,North,-999,0.0,0.0,63,0.00,,,-99.99,FreeWX 2.04,2013-06-01 07:49:00,
2013-06-01 03:59:00,67.6,54.1,30.00,North,-999,0.0,0.0,62,0.00,,,-99.99,FreeWX 2.04,2013-06-01 07:59:00,
2013-06-01 04:09:00,67.8,54.3,30.00,North,-999,0.0,0.0,62,0.00,,,-99.99,FreeWX 2.04,2013-06-01 08:09:00,
2013-06-01 04:19:00,68.0,54.0,30.00,North,-999,0.0,0.0,61,0.00,,,-99.99,FreeWX 2.04,2013-06-01 08:19:00,
2013-06-01 04:29:00,68.0,53.1,30.00,North,-999,0.0,0.0,59,0.00,,,-99.99,FreeWX 2.04,2013-06-01 08:29:00,
2013-06-01 04:39:00,68.2,52.3,29.97,North,-999,0.0,4.0,57,0.00,,,-99.99,FreeWX 2.04,2013-06-01 08:39:00,
2013-06-01 04:49:00,68.5,51.3,29.97,NNW,342,3.0,5.8,54,0.00,,,-99.99,FreeWX 2.04,2013-06-01 08:49:00,
2013-06-01 04:59:00,68.7,49.8,29.97,NW,314,1.0,4.5,51,0.00,,,-99.99,FreeWX 2.04,2013-06-01 08:59:00,
2013-06-01 05:09:00,68.9,48.9,29.97,NNW,335,3.0,5.8,49,0.00,,,-99.99,FreeWX 2.04,2013-06-01 09:09:00,
2013-06-01 05:19:00,68.9,48.4,29.97,NNW,336,1.0,4.5,48,0.00,,,-99.99,FreeWX 2.04,2013-06-01 09:19:00,
2013-06-01 05:29:00,68.9,48.9,29.97,NNW,332,1.0,4.5,49,0.00,,,-99.99,FreeWX 2.04,2013-06-01 09:29:00,
2013-06-01 05:39:00,68.9,48.4,29.97,NNW,334,1.0,4.9,48,0.00,,,-99.99,FreeWX 2.04,2013-06-01 09:39:00,
2013-06-01 05:49:00,69.1,48.6,29.97,NNW,332,2.0,5.4,48,0.00,,,-99.99,FreeWX 2.04,2013-06-01 09:49:00,
2013-06-01 05:59:00,68.9,47.8,29.97,NNW,345,2.0,5.8,47,0.00,,,-99.99,FreeWX 2.04,2013-06-01 09:59:00,
2013-06-01 06:09:00,69.1,46.8,29.97,NNW,340,2.0,4.0,45,0.00,,,-99.99,FreeWX 2.04,2013-06-01 10:09:00,
2013-06-01 06:19:00,69.3,46.9,29.97,NNW,332,1.0,4.9,45,0.00,,,-99.99,FreeWX 2.04,2013-06-01 10:19:00,
2013-06-01 06:29:00,69.3,46.9,29.97,NNW,338,1.0,4.5,45,0.00,,,-99.99,FreeWX 2.04,2013-06-01 10:29:00,
2013-06-01 06:39:00,69.4,46.6,29.94,NNW,340,1.0,5.4,44,0.00,,,-99.99,FreeWX 2.04,2013-06-01 10:39:00,
2013-06-01 06:49:00,69.6,46.0,29.97,NNW,340,2.0,6.9,43,0.00,,,-99.99,FreeWX 2.04,2013-06-01 10:49:00,
2013-06-01 06:59:00,70.0,45.9,29.97,NNW,330,1.0,6.9,42,0.00,,,-99.99,FreeWX 2.04,2013-06-01 10:59:00,
2013-06-01 07:09:00,70.3,46.2,29.97,NNW,333,2.0,5.8,42,0.00,,,-99.99,FreeWX 2.04,2013-06-01 11:09:00,
2013-06-01 07:19:00,70.5,46.2,29.97,NNW,335,2.0,4.5,42,0.00,,,-99.99,FreeWX 2.04,2013-06-01 11:19:00,
2013-06-01 07:29:00,70.7,46.4,29.97,North,-999,0.0,4.5,42,0.00,,,-99.99,FreeWX 2.04,2013-06-01 11:29:00,
2013-06-01 07:39:00,71.4,46.4,29.97,NNW,333,1.0,4.9,41,0.00,,,-99.99,FreeWX 2.04,2013-06-01 11:39:00,
2013-06-01 07:49:00,72.0,46.9,29.97,North,352,1.0,5.4,41,0.00,,,-99.99,FreeWX 2.04,2013-06-01 11:49:00,
2013-06-01 07:59:00,72.5,46.8,29.97,NNW,333,1.0,4.9,40,0.00,,,-99.99,FreeWX 2.04,2013-06-01 11:59:00,
2013-06-01 08:09:00,73.2,46.8,29.97,NE,42,1.0,5.4,39,0.00,,,-99.99,FreeWX 2.04,2013-06-01 12:09:00,
2013-06-01 08:19:00,74.5,44.2,29.97,NNW,333,2.0,6.7,34,0.00,,,-99.99,FreeWX 2.04,2013-06-01 12:19:00,
2013-06-01 08:29:00,75.2,44.1,29.97,North,-999,0.0,4.9,33,0.00,,,-99.99,FreeWX 2.04,2013-06-01 12:29:00,
2013-06-01 08:39:00,75.7,44.6,29.97,NNW,328,1.0,6.3,33,0.00,,,-99.99,FreeWX 2.04,2013-06-01 12:39:00,
2013-06-01 08:49:00,76.3,44.2,29.97,NNW,337,2.0,6.7,32,0.00,,,-99.99,FreeWX 2.04,2013-06-01 12:49:00,
2013-06-01 08:59:00,76.1,44.1,29.97,NNE,21,1.0,4.9,32,0.00,,,-99.99,FreeWX 2.04,2013-06-01 12:59:00,
2013-06-01 09:09:00,76.1,44.1,29.97,NNW,337,1.0,5.4,32,0.00,,,-99.99,FreeWX 2.04,2013-06-01 13:09:00,
2013-06-01 09:19:00,76.6,43.7,29.97,NNW,346,1.0,5.4,31,0.00,,,-99.99,FreeWX 2.04,2013-06-01 13:19:00,
2013-06-01 09:29:00,77.4,44.4,29.97,NNW,339,3.0,5.8,31,0.00,,,-99.99,FreeWX 2.04,2013-06-01 13:29:00,
2013-06-01 09:39:00,78.1,44.1,29.97,NNW,344,2.0,6.9,30,0.00,,,-99.99,FreeWX 2.04,2013-06-01 13:39:00,
2013-06-01 09:49:00,79.3,44.2,29.94,NNW,344,4.0,8.3,29,0.00,,,-99.99,FreeWX 2.04,2013-06-01 13:49:00,
2013-06-01 09:59:00,80.2,42.3,29.94,North,355,4.0,9.2,26,0.00,,,-99.99,FreeWX 2.04,2013-06-01 13:59:00,
2013-06-01 10:09:00,80.8,42.6,29.94,North,349,3.0,7.8,26,0.00,,,-99.99,FreeWX 2.04,2013-06-01 14:09:00,
2013-06-01 10:19:00,80.6,43.5,29.97,West,271,2.0,6.3,27,0.00,,,-99.99,FreeWX 2.04,2013-06-01 14:19:00,
2013-06-01 10:34:00,81.3,41.0,29.97,NE,43,4.0,11.2,24,0.00,,,-99.99,FreeWX 2.04,2013-06-01 14:34:00,
2013-06-01 10:44:00,81.5,40.1,29.97,NNW,345,4.0,10.1,23,0.00,,,-99.99,FreeWX 2.04,2013-06-01 14:44:00,
2013-06-01 10:54:00,82.0,40.6,29.97,North,11,4.0,7.4,23,0.00,,,-99.99,FreeWX 2.04,2013-06-01 14:54:00,
2013-06-01 11:08:00,83.1,39.2,29.97,North,5,5.0,11.6,21,0.00,,,-99.99,FreeWX 2.04,2013-06-01 15:08:00,
2013-06-01 11:18:00,84.6,39.0,29.97,NNW,339,4.0,12.5,20,0.00,,,-99.99,FreeWX 2.04,2013-06-01 15:18:00,
2013-06-01 11:28:00,84.9,40.6,29.97,NNW,345,4.0,8.7,21,0.00,,,-99.99,FreeWX 2.04,2013-06-01 15:28:00,
2013-06-01 11:38:00,86.9,39.6,29.97,North,349,4.0,9.2,19,0.00,,,-99.99,FreeWX 2.04,2013-06-01 15:38:00,
2013-06-01 11:48:00,85.6,38.7,29.97,NW,322,4.0,9.2,19,0.00,,,-99.99,FreeWX 2.04,2013-06-01 15:48:00,
2013-06-01 11:58:00,86.7,39.6,29.97,NNW,345,4.0,9.2,19,0.00,,,-99.99,FreeWX 2.04,2013-06-01 15:58:00,
2013-06-01 12:08:00,89.1,39.9,29.97,North,357,4.0,9.2,18,0.00,,,-99.99,FreeWX 2.04,2013-06-01 16:08:00,
2013-06-01 12:18:00,88.9,38.5,29.97,NNW,346,4.0,8.7,17,0.00,,,-99.99,FreeWX 2.04,2013-06-01 16:18:00,
2013-06-01 12:28:00,88.0,39.2,29.97,North,8,5.0,11.6,18,0.00,,,-99.99,FreeWX 2.04,2013-06-01 16:28:00,
2013-06-01 12:38:00,87.3,38.5,29.97,NNE,18,5.0,12.5,18,0.00,,,-99.99,FreeWX 2.04,2013-06-01 16:38:00,
2013-06-01 12:48:00,87.1,38.5,29.97,North,351,4.0,11.2,18,0.00,,,-99.99,FreeWX 2.04,2013-06-01 16:48:00,
2013-06-01 12:58:00,87.1,38.5,29.97,North,351,5.0,14.3,18,0.00,,,-99.99,FreeWX 2.04,2013-06-01 16:58:00,
2013-06-01 13:08:00,88.5,39.6,29.94,North,351,6.0,13.9,18,0.00,,,-99.99,FreeWX 2.04,2013-06-01 17:08:00,
2013-06-01 13:18:00,88.9,38.5,29.94,North,350,4.0,11.6,17,0.00,,,-99.99,FreeWX 2.04,2013-06-01 17:18:00,
2013-06-01 13:28:00,89.4,38.8,29.94,North,356,4.0,10.1,17,0.00,,,-99.99,FreeWX 2.04,2013-06-01 17:28:00,
2013-06-01 13:38:00,89.1,38.5,29.94,North,355,4.0,8.3,17,0.00,,,-99.99,FreeWX 2.04,2013-06-01 17:38:00,
2013-06-01 13:48:00,87.8,39.0,29.94,NNW,332,5.0,11.6,18,0.00,,,-99.99,FreeWX 2.04,2013-06-01 17:48:00,
2013-06-01 13:58:00,88.2,39.2,29.94,North,353,4.0,10.1,18,0.00,,,-99.99,FreeWX 2.04,2013-06-01 17:58:00,
2013-06-01 14:08:00,88.7,39.7,29.94,North,350,5.0,13.9,18,0.00,,,-99.99,FreeWX 2.04,2013-06-01 18:08:00,
2013-06-01 14:18:00,89.6,39.0,29.94,North,357,4.0,11.2,17,0.00,,,-99.99,FreeWX 2.04,2013-06-01 18:18:00,
2013-06-01 14:33:00,89.4,38.8,29.94,North,351,5.0,13.9,17,0.00,,,-99.99,FreeWX 2.04,2013-06-01 18:33:00,
2013-06-01 14:43:00,90.0,39.2,29.94,North,351,4.0,7.4,17,0.00,,,-99.99,FreeWX 2.04,2013-06-01 18:43:00,
2013-06-01 14:53:00,89.4,40.3,29.94,NNW,342,4.0,10.1,18,0.00,,,-99.99,FreeWX 2.04,2013-06-01 18:53:00,
2013-06-01 15:03:00,88.7,38.3,29.91,North,352,4.0,12.5,17,0.00,,,-99.99,FreeWX 2.04,2013-06-01 19:03:00,
2013-06-01 15:13:00,88.2,39.2,29.91,NNW,348,4.0,9.6,18,0.00,,,-99.99,FreeWX 2.04,2013-06-01 19:13:00,
2013-06-01 15:23:00,88.0,39.2,29.91,North,356,4.0,9.6,18,0.00,,,-99.99,FreeWX 2.04,2013-06-01 19:23:00,
2013-06-01 15:33:00,87.3,38.5,29.91,North,352,4.0,8.3,18,0.00,,,-99.99,FreeWX 2.04,2013-06-01 19:33:00,
2013-06-01 15:43:00,86.2,39.0,29.91,North,350,4.0,8.7,19,0.00,,,-99.99,FreeWX 2.04,2013-06-01 19:43:00,
2013-06-01 15:53:00,85.3,38.3,29.91,North,354,4.0,10.1,19,0.00,,,-99.99,FreeWX 2.04,2013-06-01 19:53:00,